Location: Newark
(45.0500°N, 41.9667°E)
Time: 13:11:46
(UTC+00:00)

Starlink (trailer) - Pass Details

Date: 23 July 2019
Orbit: 549 x 551 km, 53.0° (Epoch: 22 August)

Event Time Altitude Azimuth Distance (km) Brightness Sun altitude
Rises 00:32:15 0° 287° (WNW) 2,720 6.9 -11.3°
Reaches altitude 10° 00:34:46 10° 300° (WNW) 1,827 6.1 -11.0°
Maximum altitude 00:38:19 27° 359° (N) 1,091 5.6 -10.5°
Drops below altitude 10° 00:41:52 10° 58° (ENE) 1,829 7.8 -10.1°
Sets 00:44:23 0° 71° (ENE) 2,723 8.6 -9.8°
